Year,Month,Day,Hour,Minute,Value (Times are PST for temperature in C)
2016,02,16,00,00,9.90
2016,02,16,00,01,9.90
2016,02,16,00,02,9.90
2016,02,16,00,03,9.90
2016,02,16,00,04,9.90
2016,02,16,00,05,9.90
2016,02,16,00,06,9.90
2016,02,16,00,07,9.90
2016,02,16,00,08,9.90
2016,02,16,00,09,9.90
2016,02,16,00,10,9.90
2016,02,16,00,11,9.90
2016,02,16,00,12,9.90
2016,02,16,00,13,9.90
2016,02,16,00,14,9.90
2016,02,16,00,15,9.90
2016,02,16,00,16,9.90
2016,02,16,00,17,9.90
2016,02,16,00,18,9.90
2016,02,16,00,19,9.90
2016,02,16,00,20,9.90
2016,02,16,00,21,9.80
2016,02,16,00,22,9.80
2016,02,16,00,23,9.80
2016,02,16,00,24,9.80
2016,02,16,00,25,9.80
2016,02,16,00,26,9.80
2016,02,16,00,27,9.80
2016,02,16,00,28,9.80
2016,02,16,00,29,9.70
2016,02,16,00,30,9.70
2016,02,16,00,31,9.70
2016,02,16,00,32,9.70
2016,02,16,00,33,9.70
2016,02,16,00,34,9.70
2016,02,16,00,35,9.70
2016,02,16,00,36,9.70
2016,02,16,00,37,9.70
2016,02,16,00,38,9.70
2016,02,16,00,39,9.70
2016,02,16,00,40,9.70
2016,02,16,00,41,9.70
2016,02,16,00,42,9.70
2016,02,16,00,43,9.70
2016,02,16,00,44,9.70
2016,02,16,00,45,9.70
2016,02,16,00,46,9.70
2016,02,16,00,47,9.70
2016,02,16,00,48,9.70
2016,02,16,00,49,9.70
2016,02,16,00,50,9.70
2016,02,16,00,51,9.70
2016,02,16,00,52,9.70
2016,02,16,00,53,9.70
2016,02,16,00,54,9.70
2016,02,16,00,55,9.70
2016,02,16,00,56,9.70
2016,02,16,00,57,9.70
2016,02,16,00,58,9.70
2016,02,16,00,59,9.70
2016,02,16,01,00,9.60
2016,02,16,01,01,9.60
2016,02,16,01,02,9.60
2016,02,16,01,03,9.60
2016,02,16,01,04,9.60
2016,02,16,01,05,9.60
2016,02,16,01,06,9.60
2016,02,16,01,07,9.60
2016,02,16,01,08,9.60
2016,02,16,01,09,9.50
2016,02,16,01,10,9.50
2016,02,16,01,11,9.50
2016,02,16,01,12,9.50
2016,02,16,01,13,9.50
2016,02,16,01,14,9.50
2016,02,16,01,15,9.50
2016,02,16,01,16,9.50
2016,02,16,01,17,9.50
2016,02,16,01,18,9.50
2016,02,16,01,19,9.50
2016,02,16,01,20,9.50
2016,02,16,01,21,9.50
2016,02,16,01,22,9.50
2016,02,16,01,23,9.40
2016,02,16,01,24,9.40
2016,02,16,01,25,9.40
2016,02,16,01,26,9.40
2016,02,16,01,27,9.40
2016,02,16,01,28,9.40
2016,02,16,01,29,9.40
2016,02,16,01,30,9.50
2016,02,16,01,31,9.50
2016,02,16,01,32,9.50
2016,02,16,01,33,9.50
2016,02,16,01,34,9.50
2016,02,16,01,35,9.60
2016,02,16,01,36,9.60
2016,02,16,01,37,9.60
2016,02,16,01,38,9.60
2016,02,16,01,39,9.60
2016,02,16,01,40,9.60
2016,02,16,01,41,9.60
2016,02,16,01,42,9.60
2016,02,16,01,43,9.70
2016,02,16,01,44,9.70
2016,02,16,01,45,9.70
2016,02,16,01,46,9.70
2016,02,16,01,47,9.70
2016,02,16,01,48,9.70
2016,02,16,01,49,9.70
2016,02,16,01,50,9.70
2016,02,16,01,51,9.70
2016,02,16,01,52,9.70
2016,02,16,01,53,9.70
2016,02,16,01,54,9.70
2016,02,16,01,55,9.70
2016,02,16,01,56,9.70
2016,02,16,01,57,9.70
2016,02,16,01,58,9.70
2016,02,16,01,59,9.70
2016,02,16,02,00,9.70
2016,02,16,02,01,9.70
2016,02,16,02,02,9.70
2016,02,16,02,03,9.60
2016,02,16,02,04,9.60
2016,02,16,02,05,9.60
2016,02,16,02,06,9.60
2016,02,16,02,07,9.50
2016,02,16,02,08,9.50
2016,02,16,02,09,9.50
2016,02,16,02,10,9.50
2016,02,16,02,11,9.50
2016,02,16,02,12,9.50
2016,02,16,02,13,9.50
2016,02,16,02,14,9.50
2016,02,16,02,15,9.50
2016,02,16,02,16,9.50
2016,02,16,02,17,9.50
2016,02,16,02,18,9.50
2016,02,16,02,19,9.50
2016,02,16,02,20,9.50
2016,02,16,02,21,9.50
2016,02,16,02,22,9.50
2016,02,16,02,23,9.50
2016,02,16,02,24,9.60
2016,02,16,02,25,9.60
2016,02,16,02,26,9.60
2016,02,16,02,27,9.60
2016,02,16,02,28,9.60
2016,02,16,02,29,9.60
2016,02,16,02,30,9.60
2016,02,16,02,31,9.60
2016,02,16,02,32,9.60
2016,02,16,02,33,9.60
2016,02,16,02,34,9.60
2016,02,16,02,35,9.60
2016,02,16,02,36,9.60
2016,02,16,02,37,9.60
2016,02,16,02,38,9.60
2016,02,16,02,39,9.60
2016,02,16,02,40,9.60
2016,02,16,02,41,9.60
2016,02,16,02,42,9.60
2016,02,16,02,43,9.60
2016,02,16,02,44,9.60
2016,02,16,02,45,9.50
2016,02,16,02,46,9.40
2016,02,16,02,47,9.40
2016,02,16,02,48,9.30
2016,02,16,02,49,9.30
2016,02,16,02,50,9.20
2016,02,16,02,51,9.20
2016,02,16,02,52,9.10
2016,02,16,02,53,9.10
2016,02,16,02,54,9.10
2016,02,16,02,55,9.00
2016,02,16,02,56,9.00
2016,02,16,02,57,8.90
2016,02,16,02,58,8.90
2016,02,16,02,59,8.90
2016,02,16,03,00,8.90
2016,02,16,03,01,8.80
2016,02,16,03,02,8.80
2016,02,16,03,03,8.80
2016,02,16,03,04,8.70
2016,02,16,03,05,8.70
2016,02,16,03,06,8.70
2016,02,16,03,07,8.70
2016,02,16,03,08,8.70
2016,02,16,03,09,8.60
2016,02,16,03,10,8.60
2016,02,16,03,11,8.60
2016,02,16,03,12,8.50
2016,02,16,03,13,8.50
2016,02,16,03,14,8.40
2016,02,16,03,15,8.40
2016,02,16,03,16,8.30
2016,02,16,03,17,8.30
2016,02,16,03,18,8.30
2016,02,16,03,19,8.30
2016,02,16,03,20,8.20
2016,02,16,03,21,8.20
2016,02,16,03,22,8.20
2016,02,16,03,23,8.20
2016,02,16,03,24,8.20
2016,02,16,03,25,8.20
2016,02,16,03,26,8.20
2016,02,16,03,27,8.20
2016,02,16,03,28,8.10
2016,02,16,03,29,8.10
2016,02,16,03,30,8.10
2016,02,16,03,31,8.00
2016,02,16,03,32,8.00
2016,02,16,03,33,7.90
2016,02,16,03,34,7.90
2016,02,16,03,35,7.80
2016,02,16,03,36,7.80
2016,02,16,03,37,7.80
2016,02,16,03,38,7.80
2016,02,16,03,39,7.80
2016,02,16,03,40,7.80
2016,02,16,03,41,7.80
2016,02,16,03,42,7.80
2016,02,16,03,43,7.80
2016,02,16,03,44,7.80
2016,02,16,03,45,7.80
2016,02,16,03,46,7.80
2016,02,16,03,47,7.70
2016,02,16,03,48,7.70
2016,02,16,03,49,7.70
2016,02,16,03,50,7.60
2016,02,16,03,51,7.60
2016,02,16,03,52,7.60
2016,02,16,03,53,7.60
2016,02,16,03,54,7.60
2016,02,16,03,55,7.60
2016,02,16,03,56,7.60
2016,02,16,03,57,7.60
2016,02,16,03,58,7.60
2016,02,16,03,59,7.60
2016,02,16,04,00,7.60
2016,02,16,04,01,7.60
2016,02,16,04,02,7.60
2016,02,16,04,03,7.50
2016,02,16,04,04,7.40
2016,02,16,04,05,7.40
2016,02,16,04,06,7.30
2016,02,16,04,07,7.30
2016,02,16,04,08,7.30
2016,02,16,04,09,7.30
2016,02,16,04,10,7.30
2016,02,16,04,11,7.30
2016,02,16,04,12,7.40
2016,02,16,04,13,7.40
2016,02,16,04,14,7.50
2016,02,16,04,15,7.50
2016,02,16,04,16,7.60
2016,02,16,04,17,7.60
2016,02,16,04,18,7.70
2016,02,16,04,19,7.70
2016,02,16,04,20,7.80
2016,02,16,04,21,7.80
2016,02,16,04,22,7.80
2016,02,16,04,23,7.80
2016,02,16,04,24,7.80
2016,02,16,04,25,7.80
2016,02,16,04,26,7.80
2016,02,16,04,27,7.90
2016,02,16,04,28,7.90
2016,02,16,04,29,7.90
2016,02,16,04,30,7.90
2016,02,16,04,31,7.90
2016,02,16,04,32,7.90
2016,02,16,04,33,7.90
2016,02,16,04,34,7.80
2016,02,16,04,35,7.80
2016,02,16,04,36,7.70
2016,02,16,04,37,7.60
2016,02,16,04,38,7.60
2016,02,16,04,39,7.50
2016,02,16,04,40,7.40
2016,02,16,04,41,7.30
2016,02,16,04,42,7.20
2016,02,16,04,43,7.10
2016,02,16,04,44,7.00
2016,02,16,04,45,7.00
2016,02,16,04,46,6.90
2016,02,16,04,47,6.90
2016,02,16,04,48,6.90
2016,02,16,04,49,6.80
2016,02,16,04,50,6.80
2016,02,16,04,51,6.80
2016,02,16,04,52,6.80
2016,02,16,04,53,6.80
2016,02,16,04,54,6.80
2016,02,16,04,55,6.80
2016,02,16,04,56,6.80
2016,02,16,04,57,6.80
2016,02,16,04,58,6.80
2016,02,16,04,59,6.80
2016,02,16,05,00,6.80
2016,02,16,05,01,6.80
2016,02,16,05,02,6.80
2016,02,16,05,03,6.80
2016,02,16,05,04,6.80
2016,02,16,05,05,6.70
2016,02,16,05,06,6.70
2016,02,16,05,07,6.60
2016,02,16,05,08,6.60
2016,02,16,05,09,6.60
2016,02,16,05,10,6.60
2016,02,16,05,11,6.40
2016,02,16,05,12,6.40
2016,02,16,05,13,6.40
2016,02,16,05,14,6.30
2016,02,16,05,15,6.30
2016,02,16,05,16,6.20
2016,02,16,05,17,6.20
2016,02,16,05,18,6.10
2016,02,16,05,19,6.10
2016,02,16,05,20,6.00
2016,02,16,05,21,5.90
2016,02,16,05,22,5.80
2016,02,16,05,23,5.80
2016,02,16,05,24,5.70
2016,02,16,05,25,5.70
2016,02,16,05,26,5.70
2016,02,16,05,27,5.70
2016,02,16,05,28,5.70
2016,02,16,05,29,5.70
2016,02,16,05,30,5.60
2016,02,16,05,31,5.60
2016,02,16,05,32,5.50
2016,02,16,05,33,5.50
2016,02,16,05,34,5.50
2016,02,16,05,35,5.50
2016,02,16,05,36,5.50
2016,02,16,05,37,5.50
2016,02,16,05,38,5.50
2016,02,16,05,39,5.50
2016,02,16,05,40,5.50
2016,02,16,05,41,5.50
2016,02,16,05,42,5.50
2016,02,16,05,43,5.50
2016,02,16,05,44,5.50
2016,02,16,05,45,5.50
2016,02,16,05,46,5.40
2016,02,16,05,47,5.40
2016,02,16,05,48,5.40
2016,02,16,05,49,5.40
2016,02,16,05,50,5.40
2016,02,16,05,51,5.40
2016,02,16,05,52,5.40
2016,02,16,05,53,5.40
2016,02,16,05,54,5.40
2016,02,16,05,55,5.40
2016,02,16,05,56,5.40
2016,02,16,05,57,5.40
2016,02,16,05,58,5.40
2016,02,16,05,59,5.50
2016,02,16,06,00,5.50
2016,02,16,06,01,5.50
2016,02,16,06,02,5.50
2016,02,16,06,03,5.50
2016,02,16,06,04,5.50
2016,02,16,06,05,5.50
2016,02,16,06,06,5.50
2016,02,16,06,07,5.50
2016,02,16,06,08,5.50
2016,02,16,06,09,5.40
2016,02,16,06,10,5.40
2016,02,16,06,11,5.40
2016,02,16,06,12,5.40
2016,02,16,06,13,5.30
2016,02,16,06,14,5.40
2016,02,16,06,15,5.40
2016,02,16,06,16,5.40
2016,02,16,06,17,5.50
2016,02,16,06,18,5.50
2016,02,16,06,19,5.50
2016,02,16,06,20,5.50
2016,02,16,06,21,5.50
2016,02,16,06,22,5.50
2016,02,16,06,23,5.50
2016,02,16,06,24,5.50
2016,02,16,06,25,5.40
2016,02,16,06,26,5.40
2016,02,16,06,27,5.40
2016,02,16,06,28,5.30
2016,02,16,06,29,5.30
2016,02,16,06,30,5.30
2016,02,16,06,31,5.20
2016,02,16,06,32,5.20
2016,02,16,06,33,5.10
2016,02,16,06,34,5.10
2016,02,16,06,35,5.10
2016,02,16,06,36,5.10
2016,02,16,06,37,5.10
2016,02,16,06,38,5.10
2016,02,16,06,39,5.10
2016,02,16,06,40,5.10
2016,02,16,06,41,5.10
2016,02,16,06,42,5.10
2016,02,16,06,43,5.10
2016,02,16,06,44,5.10
2016,02,16,06,45,5.10
2016,02,16,06,46,5.10
2016,02,16,06,47,5.10
2016,02,16,06,48,5.10
2016,02,16,06,49,5.10
2016,02,16,06,50,5.10
2016,02,16,06,51,5.10
2016,02,16,06,52,5.10
2016,02,16,06,53,5.10
2016,02,16,06,54,5.10
2016,02,16,06,55,5.10
2016,02,16,06,56,5.10
2016,02,16,06,57,5.10
2016,02,16,06,58,5.10
2016,02,16,06,59,5.10
2016,02,16,07,00,5.10
2016,02,16,07,01,5.10
2016,02,16,07,02,5.10
2016,02,16,07,03,4.90
2016,02,16,07,04,4.90
2016,02,16,07,05,4.90
2016,02,16,07,06,4.90
2016,02,16,07,07,4.90
2016,02,16,07,08,4.90
2016,02,16,07,09,4.90
2016,02,16,07,10,4.90
2016,02,16,07,11,4.90
2016,02,16,07,12,4.90
2016,02,16,07,13,4.90
2016,02,16,07,14,4.90
2016,02,16,07,15,4.90
2016,02,16,07,16,4.90
2016,02,16,07,17,4.90
2016,02,16,07,18,4.90
2016,02,16,07,19,4.90
2016,02,16,07,20,4.90
2016,02,16,07,21,4.90
2016,02,16,07,22,5.00
2016,02,16,07,23,5.10
2016,02,16,07,24,5.10
2016,02,16,07,25,5.20
2016,02,16,07,26,5.30
2016,02,16,07,27,5.20
2016,02,16,07,28,5.10
2016,02,16,07,29,5.10
2016,02,16,07,30,5.00
2016,02,16,07,31,4.90
2016,02,16,07,32,4.90
2016,02,16,07,33,4.80
2016,02,16,07,34,4.80
2016,02,16,07,35,4.70
2016,02,16,07,36,4.70
2016,02,16,07,37,4.60
2016,02,16,07,38,4.60
2016,02,16,07,39,4.60
2016,02,16,07,40,4.70
2016,02,16,07,41,4.60
2016,02,16,07,42,4.70
2016,02,16,07,43,4.70
2016,02,16,07,44,4.80
2016,02,16,07,45,4.90
2016,02,16,07,46,4.90
2016,02,16,07,47,4.90
2016,02,16,07,48,4.90
2016,02,16,07,49,5.10
2016,02,16,07,50,5.10
2016,02,16,07,51,5.10
2016,02,16,07,52,5.10
2016,02,16,07,53,5.10
2016,02,16,07,54,5.20
2016,02,16,07,55,5.20
2016,02,16,07,56,5.20
2016,02,16,07,57,5.20
2016,02,16,07,58,5.20
2016,02,16,07,59,5.30
2016,02,16,08,00,5.30
2016,02,16,08,01,5.30
2016,02,16,08,02,5.40
2016,02,16,08,03,5.50
2016,02,16,08,04,5.60
2016,02,16,08,05,5.70
2016,02,16,08,06,5.70
2016,02,16,08,07,5.70
2016,02,16,08,08,5.80
2016,02,16,08,09,5.90
2016,02,16,08,10,6.00
2016,02,16,08,11,6.00
2016,02,16,08,12,6.10
2016,02,16,08,13,6.10
2016,02,16,08,14,6.10
2016,02,16,08,15,6.20
2016,02,16,08,16,6.20
2016,02,16,08,17,6.20
2016,02,16,08,18,6.20
2016,02,16,08,19,6.20
2016,02,16,08,20,6.20
2016,02,16,08,21,6.20
2016,02,16,08,22,6.20
2016,02,16,08,23,6.20
2016,02,16,08,24,6.10
2016,02,16,08,25,6.00
2016,02,16,08,26,6.00
2016,02,16,08,27,5.90
2016,02,16,08,28,5.80
2016,02,16,08,29,5.70
2016,02,16,08,30,5.70
2016,02,16,08,31,5.60
2016,02,16,08,32,5.60
2016,02,16,08,33,5.60
2016,02,16,08,34,5.60
2016,02,16,08,35,5.60
2016,02,16,08,36,5.50
2016,02,16,08,37,5.50
2016,02,16,08,38,5.50
2016,02,16,08,39,5.40
2016,02,16,08,40,5.40
2016,02,16,08,41,5.40
2016,02,16,08,42,5.40
2016,02,16,08,43,5.40
2016,02,16,08,44,5.40
2016,02,16,08,45,5.40
2016,02,16,08,46,5.40
2016,02,16,08,47,5.30
2016,02,16,08,48,5.30
2016,02,16,08,49,5.30
2016,02,16,08,50,5.30
2016,02,16,08,51,5.30
2016,02,16,08,52,5.30
2016,02,16,08,53,5.30
2016,02,16,08,54,5.30
2016,02,16,08,55,5.30
2016,02,16,08,56,5.30
2016,02,16,08,57,5.30
2016,02,16,08,58,5.30
2016,02,16,08,59,5.40
2016,02,16,09,00,5.40
2016,02,16,09,01,5.50
2016,02,16,09,02,5.50
2016,02,16,09,03,5.60
2016,02,16,09,04,5.60
2016,02,16,09,05,5.70
2016,02,16,09,06,5.70
2016,02,16,09,07,5.70
2016,02,16,09,08,5.70
2016,02,16,09,09,5.70
2016,02,16,09,10,5.70
2016,02,16,09,11,5.80
2016,02,16,09,12,5.80
2016,02,16,09,13,5.90
2016,02,16,09,14,6.00
2016,02,16,09,15,6.00
2016,02,16,09,16,6.00
2016,02,16,09,17,6.10
2016,02,16,09,18,6.10
2016,02,16,09,19,6.20
2016,02,16,09,20,6.20
2016,02,16,09,21,6.20
2016,02,16,09,22,6.30
2016,02,16,09,23,6.30
2016,02,16,09,24,6.40
2016,02,16,09,25,6.40
2016,02,16,09,26,6.40
2016,02,16,09,27,6.40
2016,02,16,09,28,6.50
2016,02,16,09,29,6.60
2016,02,16,09,30,6.60
2016,02,16,09,31,6.60
2016,02,16,09,32,6.60
2016,02,16,09,33,6.70
2016,02,16,09,34,6.70
2016,02,16,09,35,6.70
2016,02,16,09,36,6.80
2016,02,16,09,37,6.80
2016,02,16,09,38,6.80
2016,02,16,09,39,6.80
2016,02,16,09,40,6.80
2016,02,16,09,41,6.80
2016,02,16,09,42,6.90
2016,02,16,09,43,6.90
2016,02,16,09,44,6.90
2016,02,16,09,45,7.00
2016,02,16,09,46,7.00
2016,02,16,09,47,7.10
2016,02,16,09,48,7.10
2016,02,16,09,49,7.20
2016,02,16,09,50,7.30
2016,02,16,09,51,7.30
2016,02,16,09,52,7.40
2016,02,16,09,53,7.50
2016,02,16,09,54,7.60
2016,02,16,09,55,7.70
2016,02,16,09,56,7.70
2016,02,16,09,57,7.80
2016,02,16,09,58,7.80
2016,02,16,09,59,7.80
2016,02,16,10,00,7.90
2016,02,16,10,01,7.90
2016,02,16,10,02,7.90
2016,02,16,10,03,8.00
2016,02,16,10,04,8.00
2016,02,16,10,05,8.00
2016,02,16,10,06,8.10
2016,02,16,10,07,8.10
2016,02,16,10,08,8.20
2016,02,16,10,09,8.20
2016,02,16,10,10,8.20
2016,02,16,10,11,8.20
2016,02,16,10,12,8.30
2016,02,16,10,13,8.30
2016,02,16,10,14,8.40
2016,02,16,10,15,8.40
2016,02,16,10,16,8.50
2016,02,16,10,17,8.50
2016,02,16,10,18,8.60
2016,02,16,10,19,8.70
2016,02,16,10,20,8.70
2016,02,16,10,21,8.80
2016,02,16,10,22,8.90
2016,02,16,10,23,9.00
2016,02,16,10,24,9.00
2016,02,16,10,25,9.00
2016,02,16,10,26,9.00
2016,02,16,10,27,9.00
2016,02,16,10,28,9.00
2016,02,16,10,29,9.00
2016,02,16,10,30,9.00
2016,02,16,10,31,9.10
2016,02,16,10,32,9.20
2016,02,16,10,33,9.30
2016,02,16,10,34,9.30
2016,02,16,10,35,9.40
2016,02,16,10,36,9.40
2016,02,16,10,37,9.50
2016,02,16,10,38,9.50
2016,02,16,10,39,9.50
2016,02,16,10,40,9.40
2016,02,16,10,41,9.40
2016,02,16,10,42,9.40
2016,02,16,10,43,9.50
2016,02,16,10,44,9.50
2016,02,16,10,45,9.60
2016,02,16,10,46,9.70
2016,02,16,10,47,9.70
2016,02,16,10,48,9.80
2016,02,16,10,49,9.80
2016,02,16,10,50,9.80
2016,02,16,10,51,9.90
2016,02,16,10,52,9.90
2016,02,16,10,53,9.90
2016,02,16,10,54,9.90
2016,02,16,10,55,10.00
2016,02,16,10,56,10.10
2016,02,16,10,57,10.10
2016,02,16,10,58,10.10
2016,02,16,10,59,10.10
2016,02,16,11,00,10.10
2016,02,16,11,01,10.10
2016,02,16,11,02,10.10
2016,02,16,11,03,10.10
2016,02,16,11,04,10.10
2016,02,16,11,05,10.00
2016,02,16,11,06,10.00
2016,02,16,11,07,10.10
2016,02,16,11,08,10.10
2016,02,16,11,09,10.10
2016,02,16,11,10,10.10
2016,02,16,11,11,10.10
2016,02,16,11,12,10.20
2016,02,16,11,13,10.30
2016,02,16,11,14,10.40
2016,02,16,11,15,10.40
2016,02,16,11,16,10.40
2016,02,16,11,17,10.40
2016,02,16,11,18,10.40
2016,02,16,11,19,10.50
2016,02,16,11,20,10.60
2016,02,16,11,21,10.70
2016,02,16,11,22,10.80
2016,02,16,11,23,10.80
2016,02,16,11,24,10.80
2016,02,16,11,25,10.70
2016,02,16,11,26,10.70
2016,02,16,11,27,10.70
2016,02,16,11,28,10.80
2016,02,16,11,29,10.80
2016,02,16,11,30,10.90
2016,02,16,11,31,11.00
2016,02,16,11,32,11.10
2016,02,16,11,33,11.10
2016,02,16,11,34,11.20
2016,02,16,11,35,11.30
2016,02,16,11,36,11.40
2016,02,16,11,37,11.40
2016,02,16,11,38,11.40
2016,02,16,11,39,11.30
2016,02,16,11,40,11.30
2016,02,16,11,41,11.30
2016,02,16,11,42,11.30
2016,02,16,11,43,11.30
2016,02,16,11,44,11.30
2016,02,16,11,45,11.30
2016,02,16,11,46,11.30
2016,02,16,11,47,11.40
2016,02,16,11,48,11.40
2016,02,16,11,49,11.50
2016,02,16,11,50,11.60
2016,02,16,11,51,11.60
2016,02,16,11,52,11.60
2016,02,16,11,53,11.60
2016,02,16,11,54,11.60
2016,02,16,11,55,11.60
2016,02,16,11,56,11.60
2016,02,16,11,57,11.60
2016,02,16,11,58,11.60
2016,02,16,11,59,11.60
2016,02,16,12,00,11.60
2016,02,16,12,01,11.50
2016,02,16,12,02,11.40
2016,02,16,12,03,11.40
2016,02,16,12,04,11.40
2016,02,16,12,05,11.40
2016,02,16,12,06,11.40
2016,02,16,12,07,11.40
2016,02,16,12,08,11.40
2016,02,16,12,09,11.60
2016,02,16,12,10,11.60
2016,02,16,12,11,11.40
2016,02,16,12,12,11.40
2016,02,16,12,13,11.40
2016,02,16,12,14,11.40
2016,02,16,12,15,11.40
2016,02,16,12,16,11.20
2016,02,16,12,17,11.20
2016,02,16,12,18,11.20
2016,02,16,12,19,11.20
2016,02,16,12,20,11.20
2016,02,16,12,21,11.10
2016,02,16,12,22,11.10
2016,02,16,12,23,11.10
2016,02,16,12,24,11.20
2016,02,16,12,25,11.20
2016,02,16,12,26,11.20
2016,02,16,12,27,11.20
2016,02,16,12,28,11.20
2016,02,16,12,29,11.10
2016,02,16,12,30,11.10
2016,02,16,12,31,11.10
2016,02,16,12,32,11.10
2016,02,16,12,33,11.10
2016,02,16,12,34,11.10
2016,02,16,12,35,11.00
2016,02,16,12,36,10.90
2016,02,16,12,37,10.90
2016,02,16,12,38,11.10
2016,02,16,12,39,11.10
2016,02,16,12,40,11.10
2016,02,16,12,41,11.10
2016,02,16,12,42,11.10
2016,02,16,12,43,11.10
2016,02,16,12,44,11.10
2016,02,16,12,45,11.20
2016,02,16,12,46,11.30
2016,02,16,12,47,11.30
2016,02,16,12,48,11.40
2016,02,16,12,49,11.50
2016,02,16,12,50,11.40
2016,02,16,12,51,11.50
2016,02,16,12,52,11.60
2016,02,16,12,53,11.50
2016,02,16,12,54,11.40
2016,02,16,12,55,11.40
2016,02,16,12,56,11.40
2016,02,16,12,57,11.40
2016,02,16,12,58,11.40
2016,02,16,12,59,11.40
2016,02,16,13,00,11.40
2016,02,16,13,01,11.40
2016,02,16,13,02,11.50
2016,02,16,13,03,11.60
2016,02,16,13,04,11.60
2016,02,16,13,05,11.80
2016,02,16,13,06,11.80
2016,02,16,13,07,11.70
2016,02,16,13,08,11.60
2016,02,16,13,09,11.60
2016,02,16,13,10,11.70
2016,02,16,13,11,11.80
2016,02,16,13,12,11.80
2016,02,16,13,13,11.90
2016,02,16,13,14,11.80
2016,02,16,13,15,11.80
2016,02,16,13,16,11.90
2016,02,16,13,17,11.90
2016,02,16,13,18,11.80
2016,02,16,13,19,11.70
2016,02,16,13,20,11.60
2016,02,16,13,21,11.60
2016,02,16,13,22,11.70
2016,02,16,13,23,11.80
2016,02,16,13,24,11.80
2016,02,16,13,25,11.70
2016,02,16,13,26,11.60
2016,02,16,13,27,11.50
2016,02,16,13,28,11.40
2016,02,16,13,29,11.40
2016,02,16,13,30,11.40
2016,02,16,13,31,11.40
2016,02,16,13,32,11.40
2016,02,16,13,33,11.40
2016,02,16,13,34,11.40
2016,02,16,13,35,11.40
2016,02,16,13,36,11.50
2016,02,16,13,37,11.60
2016,02,16,13,38,11.60
2016,02,16,13,39,11.60
2016,02,16,13,40,11.60
2016,02,16,13,41,11.60
2016,02,16,13,42,11.60
2016,02,16,13,43,11.60
2016,02,16,13,44,11.60
2016,02,16,13,45,11.60
2016,02,16,13,46,11.60
2016,02,16,13,47,11.70
2016,02,16,13,48,11.70
2016,02,16,13,49,11.70
2016,02,16,13,50,11.70
2016,02,16,13,51,11.70
2016,02,16,13,52,11.70
2016,02,16,13,53,11.70
2016,02,16,13,54,11.70
2016,02,16,13,55,11.70
2016,02,16,13,56,11.70
2016,02,16,13,57,11.70
2016,02,16,13,58,11.70
2016,02,16,13,59,11.80
2016,02,16,14,00,11.80
2016,02,16,14,01,11.80
2016,02,16,14,02,11.80
2016,02,16,14,03,11.70
2016,02,16,14,04,11.60
2016,02,16,14,05,11.60
2016,02,16,14,06,11.60
2016,02,16,14,07,11.70
2016,02,16,14,08,11.70
2016,02,16,14,09,11.60
2016,02,16,14,10,11.70
2016,02,16,14,11,11.70
2016,02,16,14,12,11.80
2016,02,16,14,13,11.70
2016,02,16,14,14,11.70
2016,02,16,14,15,11.70
2016,02,16,14,16,11.70
2016,02,16,14,17,11.70
2016,02,16,14,18,11.70
2016,02,16,14,19,11.70
2016,02,16,14,20,11.70
2016,02,16,14,21,11.70
2016,02,16,14,22,11.70
2016,02,16,14,23,11.70
2016,02,16,14,24,11.70
2016,02,16,14,25,11.70
2016,02,16,14,26,11.80
2016,02,16,14,27,11.80
2016,02,16,14,28,11.80
2016,02,16,14,29,11.80
2016,02,16,14,30,11.70
2016,02,16,14,31,11.70
2016,02,16,14,32,11.70
2016,02,16,14,33,11.60
2016,02,16,14,34,11.60
2016,02,16,14,35,11.60
2016,02,16,14,36,11.70
2016,02,16,14,37,11.60
2016,02,16,14,38,11.70
2016,02,16,14,39,11.60
2016,02,16,14,40,11.70
2016,02,16,14,41,11.70
2016,02,16,14,42,11.70
2016,02,16,14,43,11.60
2016,02,16,14,44,11.60
2016,02,16,14,45,11.60
2016,02,16,14,46,11.60
2016,02,16,14,47,11.60
2016,02,16,14,48,11.60
2016,02,16,14,49,11.60
2016,02,16,14,50,11.60
2016,02,16,14,51,11.60
2016,02,16,14,52,11.60
2016,02,16,14,53,11.60
2016,02,16,14,54,11.60
2016,02,16,14,55,11.60
2016,02,16,14,56,11.60
2016,02,16,14,57,11.60
2016,02,16,14,58,11.60
2016,02,16,14,59,11.60
2016,02,16,15,00,11.60
2016,02,16,15,01,11.60
2016,02,16,15,02,11.70
2016,02,16,15,03,11.80
2016,02,16,15,04,11.80
2016,02,16,15,05,11.80
2016,02,16,15,06,11.80
2016,02,16,15,07,11.90
2016,02,16,15,08,11.80
2016,02,16,15,09,11.80
2016,02,16,15,10,11.80
2016,02,16,15,11,11.80
2016,02,16,15,12,11.80
2016,02,16,15,13,11.80
2016,02,16,15,14,11.70
2016,02,16,15,15,11.60
2016,02,16,15,16,11.60
2016,02,16,15,17,11.60
2016,02,16,15,18,11.60
2016,02,16,15,19,11.60
2016,02,16,15,20,11.60
2016,02,16,15,21,11.60
2016,02,16,15,22,11.60
2016,02,16,15,23,11.60
2016,02,16,15,24,11.60
2016,02,16,15,25,11.60
2016,02,16,15,26,11.60
2016,02,16,15,27,11.60
2016,02,16,15,28,11.60
2016,02,16,15,29,11.50
2016,02,16,15,30,11.40
2016,02,16,15,31,11.40
2016,02,16,15,32,11.40
2016,02,16,15,33,11.40
2016,02,16,15,34,11.40
2016,02,16,15,35,11.40
2016,02,16,15,36,11.40
2016,02,16,15,37,11.40
2016,02,16,15,38,11.40
2016,02,16,15,39,11.40
2016,02,16,15,40,11.40
2016,02,16,15,41,11.40
2016,02,16,15,42,11.40
2016,02,16,15,43,11.40
2016,02,16,15,44,11.40
2016,02,16,15,45,11.30
2016,02,16,15,46,11.30
2016,02,16,15,47,11.30
2016,02,16,15,48,11.30
2016,02,16,15,49,11.30
2016,02,16,15,50,11.30
2016,02,16,15,51,11.20
2016,02,16,15,52,11.20
2016,02,16,15,53,11.20
2016,02,16,15,54,11.20
2016,02,16,15,55,11.20
2016,02,16,15,56,11.30
2016,02,16,15,57,11.30
2016,02,16,15,58,11.30
2016,02,16,15,59,11.30
2016,02,16,16,00,11.30
2016,02,16,16,01,11.30
2016,02,16,16,02,11.30
2016,02,16,16,03,11.30
2016,02,16,16,04,11.30
2016,02,16,16,05,11.30
2016,02,16,16,06,11.30
2016,02,16,16,07,11.30
2016,02,16,16,08,11.30
2016,02,16,16,09,11.20
2016,02,16,16,10,11.20
2016,02,16,16,11,11.20
2016,02,16,16,12,11.20
2016,02,16,16,13,11.20
2016,02,16,16,14,11.20
2016,02,16,16,15,11.20
2016,02,16,16,16,11.20
2016,02,16,16,17,11.30
2016,02,16,16,18,11.30
2016,02,16,16,19,11.30
2016,02,16,16,20,11.30
2016,02,16,16,21,11.30
2016,02,16,16,22,11.30
2016,02,16,16,23,11.30
2016,02,16,16,24,11.30
2016,02,16,16,25,11.20
2016,02,16,16,26,11.20
2016,02,16,16,27,11.20
2016,02,16,16,28,11.20
2016,02,16,16,29,11.20
2016,02,16,16,30,11.20
2016,02,16,16,31,11.20
2016,02,16,16,32,11.20
2016,02,16,16,33,11.30
2016,02,16,16,34,11.20
2016,02,16,16,35,11.20
2016,02,16,16,36,11.20
2016,02,16,16,37,11.10
2016,02,16,16,38,11.10
2016,02,16,16,39,11.10
2016,02,16,16,40,11.10
2016,02,16,16,41,11.10
2016,02,16,16,42,11.10
2016,02,16,16,43,11.10
2016,02,16,16,44,11.10
2016,02,16,16,45,11.10
2016,02,16,16,46,11.10
2016,02,16,16,47,11.10
2016,02,16,16,48,11.20
2016,02,16,16,49,11.20
2016,02,16,16,50,11.20
2016,02,16,16,51,11.20
2016,02,16,16,52,11.10
2016,02,16,16,53,11.10
2016,02,16,16,54,11.10
2016,02,16,16,55,11.10
2016,02,16,16,56,11.10
2016,02,16,16,57,11.10
2016,02,16,16,58,11.10
2016,02,16,16,59,11.10
2016,02,16,17,00,11.10
2016,02,16,17,01,11.10
2016,02,16,17,02,11.10
2016,02,16,17,03,11.10
2016,02,16,17,04,11.10
2016,02,16,17,05,11.00
2016,02,16,17,06,10.90
2016,02,16,17,07,10.90
2016,02,16,17,08,10.90
2016,02,16,17,09,10.90
2016,02,16,17,10,10.90
2016,02,16,17,11,10.90
2016,02,16,17,12,10.90
2016,02,16,17,13,10.90
2016,02,16,17,14,10.90
2016,02,16,17,15,10.90
2016,02,16,17,16,10.90
2016,02,16,17,17,10.90
2016,02,16,17,18,10.90
2016,02,16,17,19,10.90
2016,02,16,17,20,10.90
2016,02,16,17,21,10.90
2016,02,16,17,22,10.90
2016,02,16,17,23,10.90
2016,02,16,17,24,10.80
2016,02,16,17,25,10.80
2016,02,16,17,26,10.80
2016,02,16,17,27,10.80
2016,02,16,17,28,10.70
2016,02,16,17,29,10.70
2016,02,16,17,30,10.70
2016,02,16,17,31,10.70
2016,02,16,17,32,10.60
2016,02,16,17,33,10.60
2016,02,16,17,34,10.60
2016,02,16,17,35,10.60
2016,02,16,17,36,10.60
2016,02,16,17,37,10.60
2016,02,16,17,38,10.60
2016,02,16,17,39,10.60
2016,02,16,17,40,10.60
2016,02,16,17,41,10.60
2016,02,16,17,42,10.60
2016,02,16,17,43,10.50
2016,02,16,17,44,10.40
2016,02,16,17,45,10.40
2016,02,16,17,46,10.40
2016,02,16,17,47,10.40